Total_Precipitation_Accumulation
0.05 0.05 0.11 0.08 0.04 0.06 0.09 0.09 0.09 0.09 0.07 0.06 0.06 0.05 0.03 0.03 0.02 0.03 0.03 0.04 0.05 0.06 0.07 0.10 0.11 0.12 0.13 0.12 0.11 0.10 0.10 0.10 0.14 0.18 0.23 0.22 0.23 0.34 0.53 0.60 0.68 0.51 0.39
0.02 0.03 0.08 0.06 0.05 0.07 0.09 0.10 0.11 0.11 0.10 0.07 0.06 0.05 0.05 0.04 0.03 0.03 0.04 0.05 0.05 0.06 0.06 0.07 0.08 0.09 0.09 0.08 0.07 0.07 0.09 0.13 0.17 0.24 0.26 0.24 0.26 0.36 0.46 0.52 0.70 0.45 0.33
0.04 0.03 0.06 0.07 0.07 0.08 0.09 0.10 0.11 0.13 0.12 0.10 0.08 0.08 0.08 0.06 0.04 0.04 0.04 0.05 0.05 0.05 0.04 0.05 0.06 0.06 0.06 0.06 0.06 0.06 0.09 0.16 0.27 0.36 0.50 0.39 0.24 0.38 0.45 0.51 0.50 0.39 0.33
0.07 0.03 0.03 0.06 0.08 0.08 0.09 0.10 0.12 0.12 0.11 0.11 0.13 0.13 0.10 0.06 0.05 0.04 0.04 0.04 0.05 0.05 0.04 0.04 0.04 0.04 0.04 0.04 0.05 0.07 0.13 0.22 0.35 0.57 0.82 0.47 0.25 0.29 0.36 0.38 0.36 0.34 0.29
0.07 0.05 0.05 0.06 0.07 0.08 0.10 0.11 0.13 0.13 0.11 0.12 0.16 0.17 0.14 0.08 0.09 0.08 0.06 0.05 0.05 0.05 0.04 0.03 0.03 0.04 0.03 0.04 0.06 0.09 0.15 0.24 0.41 0.58 0.54 0.49 0.49 0.31 0.29 0.34 0.34 0.33 0.25
0.09 0.06 0.08 0.09 0.09 0.09 0.10 0.11 0.16 0.18 0.15 0.16 0.17 0.16 0.15 0.12 0.14 0.12 0.07 0.06 0.06 0.06 0.06 0.04 0.03 0.03 0.04 0.04 0.06 0.09 0.15 0.27 0.43 0.41 0.35 0.34 0.40 0.34 0.30 0.43 0.48 0.43 0.32
0.13 0.08 0.09 0.11 0.11 0.09 0.09 0.10 0.13 0.16 0.17 0.20 0.19 0.15 0.12 0.09 0.09 0.08 0.07 0.07 0.06 0.06 0.06 0.05 0.05 0.05 0.06 0.06 0.08 0.10 0.18 0.32 0.39 0.35 0.32 0.39 0.43 0.32 0.40 0.62 0.75 0.67 0.52
0.18 0.12 0.13 0.15 0.14 0.13 0.12 0.12 0.12 0.12 0.13 0.14 0.15 0.12 0.09 0.08 0.10 0.12 0.10 0.08 0.07 0.07 0.07 0.07 0.07 0.07 0.09 0.09 0.10 0.13 0.18 0.24 0.23 0.26 0.29 0.37 0.30 0.27 0.52 0.74 0.89 0.87 0.78
0.30 0.16 0.15 0.16 0.15 0.16 0.19 0.16 0.15 0.15 0.16 0.17 0.17 0.14 0.13 0.12 0.12 0.13 0.16 0.14 0.14 0.14 0.14 0.12 0.10 0.09 0.11 0.11 0.11 0.13 0.18 0.24 0.30 0.34 0.33 0.37 0.30 0.44 0.83 0.95 0.95 0.97 0.94
0.62 0.34 0.22 0.20 0.20 0.17 0.16 0.19 0.19 0.20 0.20 0.18 0.17 0.16 0.16 0.16 0.18 0.20 0.20 0.21 0.24 0.28 0.28 0.22 0.19 0.18 0.17 0.15 0.15 0.17 0.20 0.25 0.36 0.40 0.41 0.35 0.36 0.62 0.98 1.12 1.14 1.10 1.03
0.72 0.49 0.38 0.28 0.26 0.24 0.20 0.20 0.26 0.28 0.27 0.24 0.27 0.26 0.26 0.31 0.39 0.44 0.42 0.49 0.48 0.50 0.50 0.46 0.42 0.41 0.37 0.26 0.29 0.35 0.31 0.32 0.45 0.45 0.41 0.34 0.46 0.71 1.03 1.17 1.20 1.19 1.10
0.86 0.67 0.54 0.45 0.36 0.32 0.32 0.40 0.47 0.43 0.45 0.43 0.56 0.60 0.63 0.76 0.75 0.56 0.63 0.86 0.97 1.05 1.00 0.96 0.93 0.78 0.67 0.59 0.91 1.07 0.45 0.44 0.56 0.53 0.50 0.53 0.73 0.98 1.26 1.23 1.16 1.17 1.09
1.15 0.93 0.78 0.68 0.59 0.54 0.63 0.55 0.60 0.70 0.79 0.77 0.82 0.88 0.95 0.97 0.83 0.72 0.83 1.06 1.31 1.40 1.29 1.52 1.55 1.16 1.19 1.33 1.29 1.19 0.75 0.86 0.88 0.84 0.75 0.92 1.11 1.38 1.77 1.61 1.32 1.18 1.09
1.27 1.19 1.19 0.99 0.88 1.00 0.98 0.73 0.70 0.76 0.84 0.93 1.11 1.14 1.21 1.34 1.26 1.20 1.23 1.28 1.46 1.63 1.82 1.88 1.96 1.81 1.76 1.70 1.63 1.43 1.23 1.26 1.23 1.43 1.41 1.31 1.35 1.55 2.00 1.98 1.59 1.33 1.15
1.57 1.51 1.45 1.41 1.31 1.38 1.19 1.05 0.96 1.03 1.08 1.11 1.19 1.31 1.34 1.55 1.66 1.64 1.56 1.51 1.51 1.65 1.80 1.91 1.97 2.28 2.39 2.06 1.71 1.55 1.51 1.56 1.46 1.55 1.54 1.47 1.37 1.45 1.76 2.00 1.88 1.68 1.41
1.92 1.92 1.73 1.66 1.65 1.64 1.59 1.60 1.55 1.37 1.37 1.37 1.33 1.33 1.41 1.59 1.77 1.84 1.75 1.70 1.61 1.62 1.77 1.93 2.11 2.51 2.51 2.33 1.88 1.69 1.63 1.57 1.44 1.41 1.51 1.71 1.53 1.39 1.45 1.68 1.89 1.88 1.75
2.23 2.20 2.14 2.08 2.19 2.17 2.09 2.06 1.92 1.75 1.66 1.62 1.64 1.63 1.60 1.63 1.73 1.72 1.58 1.53 1.58 1.73 1.86 1.90 2.09 2.37 2.08 2.05 1.81 1.74 1.57 1.37 1.23 1.22 1.39 1.55 1.44 1.39 1.45 1.54 1.67 1.74 1.82
2.39 2.46 2.53 2.53 2.53 2.42 2.42 2.45 2.31 2.12 1.96 1.82 1.74 1.77 1.67 1.60 1.60 1.71 1.55 1.46 1.78 1.91 1.98 2.11 2.23 2.22 2.11 2.06 1.87 1.64 1.47 1.37 1.12 1.04 1.06 1.13 1.23 1.10 1.32 1.49 1.51 1.55 1.71
2.80 2.98 3.08 3.07 2.94 2.73 2.67 2.64 2.56 2.38 2.13 1.89 1.76 1.71 1.58 1.56 1.65 1.87 1.79 1.84 2.09 2.15 2.13 2.06 2.29 2.27 2.12 2.07 1.89 1.61 1.30 1.17 1.02 0.90 0.83 0.78 0.87 0.93 1.01 1.16 1.28 1.36 1.66
3.17 3.39 3.24 3.16 3.34 3.19 3.00 2.81 2.55 2.16 1.90 1.84 1.79 1.63 1.61 1.66 1.79 2.04 1.88 1.87 2.05 2.14 2.10 2.05 2.00 2.06 1.87 1.86 1.78 1.48 1.15 0.88 0.82 0.72 0.61 0.60 0.63 0.63 0.75 0.93 1.14 1.03 1.31
3.02 3.28 3.50 3.50 3.43 3.21 2.90 2.62 2.38 2.17 2.04 1.84 1.72 1.63 1.59 1.58 1.66 1.92 1.80 1.89 1.93 1.88 1.87 1.93 1.92 1.77 1.50 1.72 1.75 1.33 0.93 0.74 0.70 0.52 0.50 0.50 0.48 0.52 0.66 0.86 1.03 1.04 0.99
2.69 3.01 3.26 3.46 3.37 3.05 2.68 2.44 2.31 2.22 1.92 1.67 1.65 1.61 1.61 1.70 1.71 1.77 1.79 1.77 1.80 1.79 1.69 1.68 1.75 1.58 1.33 1.51 1.58 1.49 0.97 0.74 0.61 0.47 0.53 0.59 0.61 0.67 0.70 0.77 0.91 1.02 1.03
2.32 2.43 2.54 2.67 2.58 2.36 2.27 2.23 2.19 2.16 1.89 1.80 1.86 1.88 1.85 1.90 1.86 1.84 1.76 1.63 1.51 1.46 1.40 1.43 1.52 1.49 1.33 1.33 1.52 1.68 1.30 0.93 0.82 0.65 0.64 0.65 0.74 0.81 0.78 0.81 0.86 0.98 1.08
2.01 2.17 2.28 2.27 2.09 1.85 1.85 1.98 2.02 1.94 1.89 2.04 2.25 2.15 1.93 1.77 1.64 1.47 1.33 1.31 1.27 1.25 1.16 1.10 1.21 1.25 1.17 1.12 1.24 1.40 1.47 1.43 1.30 0.85 0.61 0.58 0.70 0.80 0.87 0.81 0.75 0.84 1.01
1.61 1.76 1.90 1.99 1.89 1.74 1.70 1.75 1.85 1.83 1.79 1.79 1.78 1.74 1.61 1.44 1.24 1.07 0.99 0.98 0.98 0.97 0.92 0.88 0.90 0.91 0.95 0.95 1.08 1.25 1.34 1.40 1.39 1.25 0.88 0.82 0.83 0.77 0.80 0.81 0.83 0.84 0.88
1.26 1.28 1.28 1.42 1.48 1.46 1.45 1.47 1.49 1.46 1.39 1.30 1.20 1.17 1.09 1.00 0.83 0.70 0.67 0.70 0.75 0.81 0.80 0.78 0.80 0.79 0.84 0.95 0.98 1.09 1.22 1.22 1.22 1.30 1.09 0.98 0.93 0.82 0.82 0.86 0.86 0.93 0.92